Tracking 29892 objects as of 21-Nov-2024
HD Live streaming from Space Station
objects crossing your sky now

CHINASAT-3A

Track CHINASAT-3A now!


NORAD ID: 60179
Int'l Code: 2024-122A
Perigee: 35,784.5 km
Apogee: 35,803.8 km
Inclination: 0.1 °
Period: 1,436.1 minutes
Semi major axis: 42165 km
RCS: Unknown
Launch date: June 29, 2024
Source: People's Republic of China (PRC)
Launch site: Wenchang Satellite Launch Center (WSC)
Your satellite tracking list
Your tracking list is empty




NASA's NSSDC Master Catalog

Two Line Element Set (TLE):
1 60179U 24122A   24325.95874156 -.00000312  00000-0  00000+0 0  9991
2 60179   0.0575  87.4268 0002283 179.4791 240.3125  1.00270375  1575
Source of the keplerian elements: AFSPC